Simultaneous Nadir Overpasses (SNOs) Predictions

Prediction of SNOs between AURA and NPP Satellite Orbit:

Table of predicted SNOs for the next 14.0 days since TLE Epoch: 6/8/2018
Index Date (AURA) Time (AURA) Lat,Lon (AURA) SZA (AURA ) Date (NPP) Time (NPP) Lat,Lon (NPP) SZA (NPP ) Distance(km) Time Diff (sec)
1 06/10/2018 03:41:54 79.42, 20.79 69.88 06/10/2018 03:41:28 79.42, 20.84 69.89 1.30 26
2 06/10/2018 04:31:15 -79.65,-169.92 110.48 06/10/2018 04:32:06 -79.66,-169.87 110.53 1.11 51
3 06/12/2018 19:58:20 79.52, 137.36 69.57 06/12/2018 19:58:20 79.52, 137.41 69.56 1.04 0
4 06/12/2018 20:45:22 -81.57, -0.42 118.57 06/12/2018 20:46:35 -80.83, -1.66 118.90 84.53 73
5 06/15/2018 11:25:28 -79.32, 84.30 110.25 06/15/2018 11:24:36 -79.33, 84.35 110.23 1.20 52
6 06/15/2018 12:14:47 79.58,-106.35 69.38 06/15/2018 12:15:13 79.58,-106.30 69.35 1.20 26
7 06/18/2018 03:41:53 -79.42,-159.17 110.45 06/18/2018 03:41:27 -79.43,-159.10 110.45 1.50 26
8 06/18/2018 04:31:12 79.67, 10.19 69.19 06/18/2018 04:32:04 79.67, 10.27 69.13 1.76 52
9 06/20/2018 19:11:02 73.40, 127.13 76.84 06/20/2018 19:09:49 73.69, 125.32 77.10 65.68 73




NCC Satellite Simultaneous Nadir Overpasses (SNOs) Prediction Service
